This is the latest recevied weather packets stored in our database for station/object KE1THD. If no packets are shown the sender has not sent any weather packets the latest 10 day(s).
| Time | Temp. | Humidity | Pressure | Rain* | Wind** | Luminosity | Snow |
|---|---|---|---|---|---|---|---|
| 1777995387 | 11.11° C | 42% | 1010.7 hPa | 0 mm | - | 330 W/m² | - |
| 1777995084 | 11.67° C | 41% | 1010.7 hPa | 0 mm | - | 323 W/m² | - |
| 1777994780 | 11.67° C | 41% | 1010.6 hPa | 0 mm | - | 334 W/m² | - |
| 1777994476 | 11.67° C | 41% | 1010.5 hPa | 0 mm | - | 367 W/m² | - |
| 1777994172 | 11.67° C | 41% | 1010.3 hPa | 0 mm | - | 298 W/m² | - |
| 1777993870 | 11.67° C | 43% | 1010.4 hPa | 0 mm | - | 278 W/m² | - |
| 1777993565 | 11.67° C | 42% | 1010.2 hPa | 0 mm | - | 329 W/m² | - |
| 1777993262 | 11.11° C | 42% | 1010.4 hPa | 0 mm | - | 422 W/m² | - |
| 1777992958 | 11.11° C | 43% | 1010.2 hPa | 0 mm | - | 254 W/m² | - |
| 1777992657 | 11.11° C | 42% | 1010 hPa | 0 mm | - | 236 W/m² | - |
| 1777992354 | 11.67° C | 43% | 1009.9 hPa | 0 mm | - | 257 W/m² | - |
| 1777992051 | 11.11° C | 42% | 1010 hPa | 0 mm | - | 363 W/m² | - |
| 1777991749 | 11.67° C | 42% | 1010 hPa | 0 mm | - | 406 W/m² | - |
| 1777991446 | 11.67° C | 42% | 1009.9 hPa | 0 mm | - | 596 W/m² | - |
| 1777991143 | 11.67° C | 43% | 1009.9 hPa | 0 mm | - | 574 W/m² | - |
| 1777990840 | 11.11° C | 41% | 1009.7 hPa | 0 mm | - | 503 W/m² | - |
| 1777990537 | 11.11° C | 40% | 1009.9 hPa | 0 mm | - | 478 W/m² | - |
| 1777989931 | 11.11° C | 46% | 1009.8 hPa | 0 mm | - | 380 W/m² | - |
| 1777989628 | 10.56° C | 46% | 1009.7 hPa | 0 mm | - | 476 W/m² | - |
| 1777989324 | 10.56° C | 46% | 1009.7 hPa | 0 mm | - | 224 W/m² | - |
| 1777989020 | 10.56° C | 48% | 1009.7 hPa | 0 mm | - | 291 W/m² | - |
| 1777988716 | 10.56° C | 48% | 1009.9 hPa | 0 mm | - | 273 W/m² | - |
| 1777988414 | 10.56° C | 50% | 1009.9 hPa | 0 mm | - | 329 W/m² | - |
| 1777988111 | 10° C | 51% | 1010.2 hPa | 0 mm | - | 278 W/m² | - |
| 1777987806 | 10° C | 49% | 1010 hPa | 0 mm | - | 208 W/m² | - |
* Rain latest hour (hover to see other rain measurements)
** Current wind speed in m/s (hover to see current wind gust speed)